Wind_Speed
75 71 69 71 71 66 68 65 55 50 21 32 39 38 35 36 30 30 26 19 19 11 10 7 9 14 19 19 15 20 20 21 21 18 19 17 21 23 21 20 24 25 29 31
76 75 77 76 73 70 70 67 66 61 43 38 42 45 42 37 33 31 31 26 21 16 15 13 10 10 13 11 15 17 20 19 20 19 16 15 15 19 18 17 21 23 27 29
79 82 79 78 76 72 72 73 75 75 53 46 45 44 43 40 39 35 31 29 25 24 22 18 13 10 8 9 14 14 18 20 18 19 20 16 16 16 17 19 21 20 22 26
83 83 79 78 78 77 74 78 81 76 78 61 51 47 46 47 43 42 38 34 31 29 24 20 15 10 8 10 13 6 14 18 20 19 19 18 16 16 14 16 19 19 19 22
85 84 83 79 80 80 82 82 86 87 81 75 69 61 47 45 46 44 42 39 36 35 28 25 22 16 13 9 12 9 7 12 16 20 18 16 16 16 18 16 15 17 16 18
87 86 84 82 84 82 87 81 81 87 87 82 74 68 59 45 40 42 46 45 42 36 34 31 29 24 17 15 12 12 7 8 13 16 16 16 14 14 16 17 16 16 15 16
87 85 86 85 82 82 85 82 81 83 82 87 76 74 70 52 47 44 45 48 48 41 39 36 31 29 21 17 13 15 11 11 13 15 16 15 13 11 13 14 16 16 16 17
88 87 87 87 86 84 85 83 82 80 79 83 80 75 75 74 67 51 49 52 54 50 44 37 34 34 28 23 19 17 17 12 13 16 15 16 12 11 9 10 12 13 14 18
85 88 90 89 91 91 87 83 83 82 80 80 79 76 70 70 58 57 54 54 54 53 50 44 36 37 32 29 26 22 22 19 14 18 20 20 18 14 10 8 10 12 12 14
82 83 87 90 92 91 89 86 82 81 81 79 78 81 70 61 62 58 55 50 47 50 54 50 46 42 35 34 30 30 27 22 20 20 21 19 18 16 17 13 8 9 11 12
83 86 84 87 93 92 92 91 87 82 81 82 80 83 82 66 56 64 60 55 52 50 51 51 43 42 42 36 34 34 30 25 26 22 19 21 20 17 17 16 16 14 11 10
82 85 87 87 89 93 95 94 91 87 85 85 84 81 88 87 82 77 72 67 55 55 52 53 48 46 45 45 37 41 37 30 26 20 19 18 21 16 11 15 22 19 20 15
84 84 87 89 91 93 98 96 94 91 88 85 84 81 83 90 90 82 72 67 65 58 57 57 50 42 45 41 39 39 36 27 31 27 22 15 21 18 13 10 11 13 12 21
86 87 87 90 90 90 93 95 95 94 92 86 83 82 82 84 89 82 77 72 67 65 63 62 55 49 46 42 39 30 32 33 33 36 31 25 24 24 21 16 17 18 17 14
84 86 87 86 86 89 90 92 95 96 95 92 87 85 83 84 86 85 80 79 75 73 71 68 59 55 51 52 43 41 34 38 38 43 46 42 41 34 30 27 24 24 23 19
81 82 84 83 83 86 87 90 94 97 97 95 92 86 83 82 83 90 87 86 84 81 80 71 65 61 56 54 49 43 49 48 50 51 50 48 50 40 32 34 32 30 27 27
78 82 81 79 81 85 86 91 94 95 97 97 95 93 90 87 88 90 99 100 94 92 87 81 70 71 72 64 65 57 54 52 55 55 54 52 52 41 39 38 39 38 37 33
80 82 86 82 81 84 86 89 91 93 97 96 97 97 95 94 91 90 91 98 100 99 99 99 89 77 81 78 77 75 69 65 62 63 63 60 56 51 49 52 48 43 44 39
84 81 81 84 83 84 86 86 88 92 95 94 94 95 96 96 97 95 93 94 99 106 106 104 99 90 82 82 82 77 73 72 70 69 67 69 63 54 50 53 46 49 48 47
88 88 84 84 86 84 84 88 91 89 91 91 93 94 95 99 100 102 99 98 99 100 106 110 110 104 100 87 84 84 75 73 78 80 79 71 69 65 60 56 59 50 49 54
90 94 90 89 88 89 90 89 88 89 85 87 89 90 93 95 101 104 103 103 102 103 104 103 107 109 104 98 87 84 87 86 84 85 86 84 75 70 67 68 62 67 55 56
66 81 97 91 91 92 90 89 92 86 86 85 90 87 90 93 96 101 107 109 109 110 106 107 105 103 105 107 106 102 95 92 94 93 95 91 89 81 78 75 73 71 72 72
66 72 79 90 101 102 96 96 98 92 92 92 90 91 90 92 97 99 105 110 116 115 113 110 107 107 106 106 110 104 103 101 102 103 104 100 93 89 83 81 82 81 79 78
61 67 72 76 81 89 101 106 101 98 98 98 95 92 95 96 97 102 105 111 113 117 118 116 113 112 111 110 110 109 115 111 110 110 110 112 112 105 95 92 92 90 92 90
50 59 67 70 76 81 87 96 105 107 107 103 100 99 102 99 101 104 107 111 113 117 118 120 121 119 117 115 112 112 109 111 116 118 118 118 117 118 114 108 101 100 101 102
45 50 55 62 69 73 79 84 91 96 99 106 112 110 108 108 109 111 112 112 114 115 118 121 123 124 124 121 119 116 113 113 114 122 124 125 126 122 118 117 116 113 111 110
Wind_Direction
213 212 212 216 213 208 208 202 193 200 183 215 216 218 218 220 220 217 218 221 220 205 201 234 301 329 351 20 35 51 52 43 36 41 45 41 41 35 42 42 38 38 46 48
212 213 214 213 213 210 207 203 198 197 190 203 211 213 219 219 218 215 218 228 218 205 213 245 282 326 352 4 16 40 51 46 38 38 41 36 45 39 37 34 37 34 40 44
211 213 214 214 214 212 209 205 200 201 194 191 210 217 217 219 222 215 219 222 223 209 219 240 266 289 318 328 2 31 43 47 40 31 34 33 26 37 38 35 31 32 35 42
212 213 213 215 214 214 212 208 204 201 205 204 213 215 219 222 220 221 219 225 228 224 243 242 247 262 277 309 334 10 28 37 39 29 29 34 27 21 21 29 35 35 33 40
213 212 212 214 215 213 211 211 208 208 206 215 224 227 226 224 228 226 223 227 228 233 236 240 245 236 249 272 298 327 21 14 25 27 21 22 29 20 19 13 19 38 31 31
214 213 212 215 216 214 214 211 212 214 214 219 222 223 223 220 216 219 228 227 228 227 231 233 237 237 232 252 275 296 317 343 355 6 12 9 11 14 18 19 14 13 24 21
215 213 215 215 217 217 216 214 214 216 215 217 216 219 221 216 213 223 230 224 226 225 226 227 230 237 230 245 262 274 280 292 330 333 345 347 350 356 13 17 17 8 4 13
214 213 216 216 216 217 217 214 214 217 216 218 215 217 220 223 229 236 227 223 224 224 230 226 226 231 237 239 247 254 267 266 311 322 321 319 330 327 1 2 10 19 5 357
215 214 216 218 218 217 218 215 216 216 218 217 216 217 221 223 222 223 223 221 224 225 226 232 225 230 231 234 244 254 260 263 282 309 304 315 315 309 310 349 357 4 6 7
215 216 216 218 220 220 219 217 216 216 217 217 214 215 211 210 212 216 221 220 222 227 226 231 235 225 229 235 241 247 252 260 275 294 294 305 317 312 307 302 337 342 348 352
216 217 216 218 221 221 221 219 217 215 217 216 216 214 210 201 208 218 218 225 229 233 224 228 231 230 232 228 238 242 243 242 265 277 281 286 297 289 296 301 303 324 321 328
215 218 218 219 220 222 222 221 217 218 217 217 215 216 214 211 212 218 224 225 232 227 226 229 226 227 232 233 233 238 234 241 261 261 256 254 270 264 259 287 294 310 315 321
214 217 218 218 219 221 222 221 219 219 218 217 217 217 218 216 220 223 225 226 226 222 226 226 216 223 228 231 231 233 234 232 249 255 251 254 255 252 234 252 246 264 282 300
213 216 217 218 219 222 224 222 223 219 220 219 217 217 219 218 218 217 219 222 221 216 211 210 216 223 219 217 221 230 236 228 232 245 238 239 254 255 245 242 251 263 263 260
214 217 218 218 218 220 222 223 222 222 220 219 219 217 219 221 218 217 219 217 213 218 213 215 221 220 224 223 223 235 245 232 225 239 240 244 248 257 244 252 249 254 268 267
215 218 219 219 219 219 220 222 223 222 222 221 220 219 219 221 222 213 213 217 217 220 214 216 226 215 216 226 230 235 240 243 231 235 241 248 247 242 240 249 249 246 259 270
215 218 218 219 219 219 220 223 223 222 223 222 221 220 219 220 222 223 222 223 221 223 216 221 223 221 223 227 235 235 236 241 233 232 236 238 238 238 246 246 243 253 259 263
214 215 218 217 219 220 220 222 224 224 223 223 223 222 221 222 223 224 226 225 223 223 224 228 229 228 226 233 234 236 235 239 242 232 233 231 228 231 242 244 244 246 250 251
218 219 218 220 221 221 221 222 224 224 224 223 224 224 223 225 226 226 226 227 228 226 227 228 228 231 226 229 233 232 233 232 238 233 232 231 229 232 239 241 241 242 252 253
220 219 220 220 222 222 223 223 225 225 224 226 226 224 223 225 226 227 228 229 228 228 231 232 233 232 233 229 229 232 229 233 234 235 232 232 234 235 227 241 242 246 247 251
222 223 224 224 224 224 225 226 226 226 226 226 228 228 225 225 228 229 229 230 233 232 230 231 233 234 233 228 224 228 229 225 229 233 233 233 235 232 234 234 243 247 246 246
221 225 225 226 227 228 229 230 231 226 228 227 228 227 229 226 227 229 230 230 231 234 234 234 232 234 234 234 232 230 230 227 226 227 232 232 233 232 233 233 239 246 250 246
222 221 223 224 226 225 227 230 233 229 229 229 228 229 231 231 229 229 230 232 231 233 234 235 237 236 234 234 233 232 231 229 227 226 229 229 233 233 232 238 240 243 247 251
226 226 227 227 225 225 227 226 229 232 232 230 230 231 232 234 234 232 231 232 234 234 235 235 235 236 238 237 236 236 236 235 231 229 231 233 234 236 238 239 242 246 247 248
231 229 228 229 228 227 227 228 229 230 232 234 232 231 232 232 236 237 237 235 234 234 235 236 236 237 237 237 238 239 238 236 233 233 233 235 237 239 241 241 243 247 250 251
240 234 231 229 229 229 228 228 229 228 228 231 234 232 230 231 232 235 239 239 238 237 237 238 239 238 239 240 240 240 241 240 237 236 236 237 238 240 243 244 245 247 247 250
Height
10879 10894 10900 10902 10911 10925 10935 10948 10957 10966 10971 10969 10972 10977 10983 10988 10993 10996 11001 11004 11007 11007 11009 11011 11011 11010 11010 11010 11008 11006 11004 11002 11000 10997 10993 10991 10989 10986 10985 10984 10983 10980 10977 10974
10867 10876 10880 10889 10901 10915 10926 10938 10949 10954 10954 10962 10966 10971 10977 10984 10989 10992 10997 11001 11005 11006 11008 11009 11011 11011 11012 11012 11012 11009 11005 11004 11002 11000 10999 10997 10994 10991 10990 10989 10987 10984 10980 10978
10849 10853 10868 10881 10895 10908 10919 10927 10935 10940 10946 10949 10957 10964 10971 10977 10984 10988 10993 10996 10999 11003 11005 11007 11010 11011 11013 11013 11013 11011 11009 11007 11005 11004 11002 10999 10997 10996 10994 10993 10991 10988 10986 10982
10830 10844 10859 10870 10883 10897 10907 10914 10923 10929 10931 10942 10949 10957 10964 10970 10978 10984 10988 10991 10995 11000 11002 11005 11009 11010 11011 11012 11013 11014 11012 11011 11008 11007 11005 11003 11002 10999 10999 10997 10995 10993 10990 10988
10816 10830 10843 10855 10866 10880 10886 10894 10908 10916 10926 10937 10943 10951 10959 10965 10972 10980 10984 10987 10991 10994 10998 11001 11004 11007 11009 11011 11012 11014 11012 11012 11010 11009 11008 11007 11006 11004 11001 10999 10999 10997 10996 10994
10803 10819 10833 10839 10850 10863 10870 10892 10901 10909 10920 10930 10936 10943 10952 10959 10966 10974 10978 10982 10986 10990 10994 10998 11001 11003 11006 11008 11010 11011 11011 11010 11011 11010 11009 11008 11008 11006 11004 11002 11001 11000 10999 10999
10789 10806 10815 10825 10839 10852 10866 10882 10890 10897 10912 10916 10931 10938 10946 10952 10957 10963 10970 10973 10978 10984 10989 10994 10996 10999 11002 11004 11007 11007 11009 11009 11009 11008 11010 11009 11008 11007 11005 11004 11003 11002 11003 11003
10776 10794 10801 10814 10824 10835 10849 10866 10879 10889 10897 10906 10924 10932 10934 10942 10947 10956 10959 10964 10970 10978 10982 10986 10991 10995 10999 11001 11003 11004 11005 11007 11007 11007 11007 11006 11007 11007 11006 11006 11005 11004 11003 11004
10769 10782 10790 10802 10809 10820 10833 10851 10863 10875 10886 10898 10913 10919 10928 10936 10940 10948 10950 10958 10965 10970 10979 10980 10985 10989 10993 10997 10999 11000 11001 11002 11005 11005 11005 11006 11006 11006 11006 11005 11005 11004 11004 11004
10757 10766 10779 10788 10795 10808 10823 10835 10848 10863 10874 10888 10898 10907 10921 10926 10932 10937 10944 10953 10960 10963 10969 10975 10977 10981 10989 10992 10994 10995 10997 11000 11001 11003 11004 11005 11005 11005 11004 11004 11004 11004 11005 11005
10744 10752 10764 10772 10782 10793 10804 10819 10833 10845 10857 10872 10883 10895 10908 10916 10922 10926 10934 10943 10949 10955 10960 10967 10971 10975 10980 10986 10988 10990 10991 10994 10995 10998 11002 11003 11003 11003 11003 11003 11004 11003 11003 11004
10726 10736 10748 10757 10767 10775 10785 10801 10818 10830 10842 10856 10870 10884 10893 10903 10910 10914 10920 10931 10939 10946 10953 10959 10963 10966 10970 10977 10980 10981 10985 10988 10991 10993 10996 10998 10999 10999 11001 11001 11002 11004 11004 11002
10708 10717 10728 10738 10748 10755 10768 10787 10804 10817 10831 10847 10864 10874 10880 10891 10898 10905 10910 10919 10929 10936 10942 10950 10957 10958 10962 10966 10969 10972 10977 10982 10984 10988 10991 10992 10994 10994 10995 10997 10997 10999 10999 11002
10693 10699 10708 10719 10733 10750 10760 10778 10791 10805 10818 10836 10851 10862 10870 10875 10882 10889 10898 10907 10916 10922 10929 10937 10943 10946 10949 10953 10959 10966 10970 10975 10978 10981 10984 10986 10989 10990 10990 10990 10994 10994 10994 10996
10681 10685 10694 10707 10724 10734 10745 10757 10772 10786 10801 10816 10832 10845 10854 10863 10870 10877 10886 10893 10900 10908 10915 10924 10930 10935 10939 10939 10947 10956 10963 10968 10970 10973 10973 10977 10980 10984 10984 10983 10985 10989 10990 10991
10666 10673 10684 10697 10708 10719 10732 10739 10750 10769 10784 10801 10816 10832 10845 10851 10856 10861 10868 10875 10884 10892 10900 10907 10915 10922 10925 10930 10938 10946 10953 10957 10960 10963 10966 10969 10973 10976 10977 10976 10977 10980 10984 10986
10650 10659 10669 10683 10693 10702 10715 10719 10731 10752 10766 10783 10800 10808 10819 10828 10834 10841 10849 10856 10867 10876 10885 10892 10899 10906 10911 10916 10924 10933 10941 10945 10948 10952 10956 10960 10964 10966 10968 10968 10969 10971 10973 10978
10636 10644 10653 10667 10674 10686 10694 10705 10719 10732 10748 10765 10775 10788 10802 10809 10818 10824 10828 10838 10848 10859 10869 10876 10882 10887 10894 10899 10910 10919 10927 10932 10936 10940 10945 10949 10952 10956 10959 10960 10962 10962 10963 10968
10626 10634 10644 10655 10663 10672 10683 10694 10702 10715 10730 10743 10758 10775 10786 10792 10797 10804 10810 10817 10829 10840 10848 10853 10860 10869 10874 10881 10889 10900 10910 10919 10923 10927 10932 10935 10939 10942 10946 10949 10951 10952 10954 10957
10612 10619 10628 10638 10646 10658 10667 10677 10686 10698 10716 10730 10738 10752 10763 10772 10777 10778 10789 10798 10804 10812 10822 10829 10837 10846 10855 10865 10874 10882 10893 10901 10908 10913 10917 10923 10926 10928 10933 10934 10940 10941 10942 10944
10599 10607 10617 10624 10631 10640 10650 10662 10672 10684 10702 10714 10719 10733 10744 10753 10755 10762 10773 10778 10782 10787 10795 10803 10813 10825 10838 10851 10860 10864 10871 10879 10889 10896 10901 10906 10910 10913 10917 10921 10923 10926 10930 10932
10582 10590 10600 10608 10619 10631 10638 10649 10656 10672 10678 10690 10697 10711 10718 10727 10733 10734 10743 10749 10755 10759 10773 10782 10793 10806 10818 10826 10836 10844 10852 10861 10868 10874 10881 10885 10891 10894 10900 10903 10906 10909 10913 10916
10566 10569 10575 10584 10596 10607 10614 10625 10633 10647 10657 10669 10680 10689 10698 10705 10710 10712 10716 10723 10729 10738 10748 10760 10776 10785 10792 10802 10812 10820 10829 10838 10844 10849 10856 10862 10868 10873 10878 10884 10889 10891 10895 10899
10550 10555 10562 10569 10576 10583 10591 10603 10610 10620 10635 10649 10658 10671 10680 10683 10687 10691 10693 10699 10706 10716 10725 10736 10745 10755 10766 10775 10784 10792 10802 10814 10821 10827 10832 10838 10844 10850 10856 10862 10868 10872 10876 10879
10534 10538 10544 10551 10559 10567 10573 10579 10587 10601 10611 10619 10632 10645 10653 10663 10665 10666 10667 10672 10681 10690 10698 10706 10717 10728 10738 10747 10757 10766 10776 10785 10795 10801 10808 10815 10820 10827 10833 10838 10845 10851 10854 10856
10519 10522 10527 10535 10541 10546 10553 10559 10566 10575 10586 10594 10601 10612 10623 10631 10637 10641 10645 10653 10660 10667 10674 10682 10692 10703 10712 10722 10732 10741 10750 10757 10765 10773 10781 10788 10794 10800 10807 10813 10819 10826 10831 10834